Weather in Siena

Italy     43°19′06″N   11°19′53″E
temp.,
°C
wind,
m/s
gust,
m/s
humid.,
%
clouds,
%
prec.,
mm/h
press.,
hPa
HPBL,
m
8 may, sat
sat823:00+10ne2287100 0.0 101515
02:00+9ene119438 0.0 101510
05:00+9e11952 0.0 101610
08:00+12ne118590 0.0 1017139
11:00+18n23595 0.0 1017993
14:00+21nw325189 0.0 10171783
17:00+19ne236268 0.1 1017754
20:00+17nnw117328 0.1 101811
9 may, sun
sun923:00+12ne11865 0.0 101911
02:00+10ene11925 0.0 102011
05:00+9ene11945 0.0 101911
08:00+13e12815 0.0 1020169
11:00+19se22625 0.0 1019794
14:00+23s334826 0.0 10171801
17:00+21ssw555697 0.0 1017935
20:00+16ssw2382100 0.0 101854
10 may, mon
mon1023:00+13s1190100 0.0 101810
02:00+12se119354 0.0 101810
05:00+11ese11945 0.0 101712
08:00+14e22800 0.0 1018141
11:00+21sse47493 0.0 10171034
14:00+23s69421 0.0 10161354
17:00+22s710476 0.0 10151088
20:00+16s2368100 0.0 101590
11 may, tue
tue1123:00+13sse11765 0.0 101611
02:00+11ese228498 0.0 101514
05:00+11ese118384 0.0 101413
08:00+14ssw1172100 0.0 1014130
11:00+17se256493 0.2 1013785
14:00+15ese2586100 1.1 1011322
17:00+14sse41090100 3.3 1010700
20:00+12s2298100 5.6 100753
12 may, wed
wed1223:00+11s2295100 5.4 100753
02:00+10ssw1193100 5.4 100610
05:00+8ssw119191 0.0 100513
08:00+11wnw0187100 0.0 1005122
11:00+15ssw3568100 0.3 10041168
14:00+15w6776100 1.6 10041102
17:00+12wnw6128294 0.8 1006725
20:00+13wnw4116986 0.8 1007744